sat.trackr.live / text

‹ back to catalog

STARLINK-2221

NORAD 48571 · 2021-041U

PAYLOAD ACTIVE UNKNOWN

§ Identity

Operator
Country
US
Launch date
2021-05-15
Launch site
AFETR
Launch vehicle
Mass (kg)
RCS (m²)

Purposes: comms

External: N2YO · Heavens-Above · Gunter

§ Orbital elements

Epoch: 2026-05-24T23:48:19.872288Z

Period
94.01 min
Inclination
53.1590°
Eccentricity
0.0001335
Mean motion
15.31704479 rev/d
Perigee alt
469.8 km
Apogee alt
471.6 km
Semi-major
6,848.9 km
B*
4.3522e-5
RAAN
144.6709°
Arg perigee
65.0838°
Mean anomaly
295.0302°
Rev number
27,678

§ Raw data

STARLINK-22211 48571U 21041U   26144.99189667  .00000986  00000+0  43522-4 0  99972 48571  53.1590 144.6709 0001335  65.0838 295.0302 15.31704479276785

JSON: /api/v1/satellites/48571 · /tle

For live sub-satellite position, see the globe view (requires WebGL).

§ Visibility from observer

Set your observer location to see the next 7 days of passes ≥ 10°. The values pass through the URL so the page stays shareable.

No JS? Fill the form by hand. The geolocation button needs JavaScript.